Powrót do katalogu

STARLINK-34073

AktywnyŁącznośćVLEO
NORAD 64606·PAYLOAD·🇺🇸 United States

Wystrzelony Jun 25, 2025 z Cape Canaveral Space Force Station

Loading…

Następne Przeloty (najbliższe 24 godziny)

TLE

ŚwieżeSource: CelesTrak SupGP

Epoka: Sep 14, 2026, 21:45 UTC

1 64606C 25137N   26257.90673611 -.00027225  00000+0 -80412-3 0  2579
2 64606  53.1603 175.6823 0001273  82.7552 295.5895 15.34414129    14

Śledź STARLINK-34073 w czasie rzeczywistym z AllMySat

Download on the App Store